Regional Weather Roundup
Issued by NWS

Home | Current Version | Previous Version | Graphics & Text | Print | Product List | Glossary On
Versions: 1 2 3 4 5 6 7 8 9 10 11 12 13 14 15 16 17 18 19 20 21 22 23 24 25 26 27 28 29 30 31 32 33 34 35 36 37 38 39 40 41 42 43 44 45 46 47 48 49 50
000
ASUS44 KMEG 230910
RWRTN
TENNESSEE HOURLY STATE WEATHER ROUNDUP
NATIONAL WEATHER SERVICE MEMPHIS TN
400 AM CDT TUE SEP 23 2014

TNZ002-004-019-021-049-052-054-088>092-231000-
WEST TENNESSEE

CITY           SKY/WX    TMP DP  RH WIND       PRES   REMARKS
MEMPHIS INTL   CLEAR     60  47  61 E8        30.21S
NWS MEMPHIS      N/A     56 N/A N/A MISG        N/A
JACKSON        CLEAR     52  47  83 NE3       30.22S
DYERSBURG      CLEAR     54  39  58 E5        30.24S
UNION CITY     CLEAR     48  46  93 NE6       30.23S
PARIS          CLEAR     45  43  93 NE6       30.24S
HUNTINGDON     CLEAR     48  44  86 NE6       30.23F
LEXINGTON      CLEAR     46  45  93 NE3       30.21S
SAVANNAH       CLEAR     45  45 100 CALM      30.21S
$$

TNZ008-025-027-028-033-062-065-066-231000-
NORTH MIDDLE TENNESSEE

CITY           SKY/WX    TMP DP  RH WIND       PRES   REMARKS
NASHVILLE      CLEAR     52  46  80 NE5       30.23F
DICKSON        CLEAR     50  45  81 NE5       30.22F
PORTLAND       CLEAR     46  45  93 CALM      30.24S
CLARKSVILLE    CLEAR     49  44  83 CALM      30.25S
LEBANON        CLEAR     44  43  97 CALM      30.22S
SMYRNA         CLEAR     47  44  89 CALM      30.24S
MURFREESBORO   CLEAR     50  44  79 N3        30.22S
COOKEVILLE     CLEAR     45  43  93 CALM      30.22R
LIVINGSTON     CLEAR     49  46  89 NE6       30.24S
GALLATIN       CLEAR     53  47  80 NE7       30.24F
CROSSVILLE     CLEAR     49  44  83 NE5       30.24R
$$

TNZ061-075-076-078-094-096-097-231000-
SOUTH MIDDLE TENNESSEE

CITY           SKY/WX    TMP DP  RH WIND       PRES   REMARKS
LEWISBURG      CLEAR     42  40  93 CALM      30.21S
FAYETTEVILLE   CLEAR     52  45  76 NE9       30.19S
TULLAHOMA      CLEAR     52  45  76 NE7       30.21R
WINCHESTER     CLEAR     48  46  93 CALM      30.20S
MCMINNVILLE    CLEAR     48  48 100 CALM      30.21S
COLUMBIA       CLEAR     48  48 100 CALM      30.20S
SHELBYVILLE    CLEAR     46  45  93 CALM      30.22R
$$

TNZ017-018-042-046-047-231000-
NORTHEAST TENNESSEE

CITY           SKY/WX    TMP DP  RH WIND       PRES   REMARKS
TRI CITIES     CLEAR     47  43  86 CALM      30.25R
ELIZABETHTON   SUNNY     43  43 100 CALM      30.25R
$$

TNZ012-013-036-069-073-074-231000-
CENTRAL EAST TENNESSEE

CITY           SKY/WX    TMP DP  RH WIND       PRES   REMARKS
KNOXVILLE      CLEAR     53  49  86 N8        30.21R
OAK RIDGE      CLEAR     51  48  89 E3        30.24S
GATLINBURG     SUNNY     46  46 100 NE3       30.22S
MORRISTOWN     SUNNY     50  46  87 NE3       30.24R
$$

TNZ083-085-099-231000-
SOUTHEAST TENNESSEE

CITY           SKY/WX    TMP DP  RH WIND       PRES   REMARKS
CHATTANOOGA    CLOUDY    61  49  64 N13       30.19R
$$

SKY/WX REPORTED AS FAIR MEANS FEW OR NO CLOUDS BELOW
12 THOUSAND FEET.




USA.gov is the U.S. government's official web portal to all federal, state and local government web resources and services.